This is the latest recevied weather packets stored in our database for station/object G4ZMG. If no packets are shown the sender has not sent any weather packets the latest 10 day(s).
| Time | Temp. | Humidity | Pressure | Rain* | Wind** | Luminosity | Snow |
|---|---|---|---|---|---|---|---|
| 1777711237 | 12.78° C | 79% | 1016.3 hPa | 0 mm | - | 151 W/m² | - |
| 1777710629 | 13.89° C | 81% | 1016.5 hPa | 0 mm | - | 580 W/m² | - |
| 1777710011 | 13.33° C | 84% | 1016.5 hPa | 0 mm | - | 503 W/m² | - |
| 1777709402 | 12.78° C | 86% | 1016.4 hPa | 0 mm | - | 448 W/m² | - |
| 1777708829 | 11.67° C | 87% | 1016.5 hPa | 0 mm | - | 355 W/m² | - |
| 1777708203 | 11.67° C | 88% | 1016.3 hPa | 0 mm | - | 417 W/m² | - |
| 1777707637 | 11.11° C | 88% | 1016.2 hPa | 0 mm | - | 179 W/m² | - |
| 1777707022 | 11.11° C | 89% | 1016.3 hPa | 0 mm | - | 216 W/m² | - |
| 1777706406 | 10.56° C | 89% | 1016.2 hPa | 0 mm | - | 190 W/m² | - |
| 1777705802 | 10.56° C | 89% | 1016.5 hPa | 0 mm | - | 197 W/m² | - |
| 1777705236 | 10° C | 90% | 1016.4 hPa | 0 mm | - | 148 W/m² | - |
| 1777704628 | 10° C | 89% | 1016.5 hPa | 0 mm | - | 137 W/m² | - |
| 1777704012 | 10° C | 90% | 1016.6 hPa | 0 mm | - | 76 W/m² | - |
| 1777703409 | 9.44° C | 90% | 1016.6 hPa | 0 mm | - | 116 W/m² | - |
| 1777702804 | 9.44° C | 90% | 1016.6 hPa | 0 mm | - | 51 W/m² | - |
| 1777702247 | 9.44° C | 90% | 1016.6 hPa | 0 mm | - | 58 W/m² | - |
| 1777701642 | 9.44° C | 90% | 1016.5 hPa | 0 mm | - | 76 W/m² | - |
| 1777701039 | 9.44° C | 91% | 1016.3 hPa | 0 mm | - | 76 W/m² | - |
| 1777700434 | 8.89° C | 91% | 1016.3 hPa | 0 mm | - | 98 W/m² | - |
| 1777699818 | 8.89° C | 91% | 1016.4 hPa | 0 mm | - | 56 W/m² | - |
| 1777699211 | 8.89° C | 91% | 1016.3 hPa | 0 mm | - | 39 W/m² | - |
| 1777698607 | 8.89° C | 91% | 1016.3 hPa | 0 mm | - | 21 W/m² | - |
| 1777698042 | 8.89° C | 91% | 1016.3 hPa | 0 mm | - | 18 W/m² | - |
| 1777697437 | 8.89° C | 91% | 1016.3 hPa | 0 mm | - | 14 W/m² | - |
| 1777696832 | 8.89° C | 91% | 1016.2 hPa | 0 mm | - | 7 W/m² | - |
* Rain latest hour (hover to see other rain measurements)
** Current wind speed in m/s (hover to see current wind gust speed)